Station Historical Data
Daily Summary for November 23, 2017 Units:  English    Metric   Both
« Previous Day
Next Day »
Daily Weekly Monthly Yearly Custom
  High: Low: Average:
Temperature: 64.0 °F 53.8 °F 58.8 °F
Dew Point: 54.9 °F 45.1 °F 49.4 °F
Humidity: 80 % 60 % 71 %
Wind Speed: 14.0 mph 0.0 mph 2.2 mph
Wind Gust: 19.0 mph - -
Wind:- - ESE
Pressure: 30.18 in 30.08 in -
Precipitation: 0.00 in    
Historical Graphs
 
 
Tabular Data for November 23, 2017
Time Temperature Dew Point Pressure Wind Wind Speed Wind Gust Humidity Rainfall Rate (Hourly) solar
00:00 58.8 °F 49.8 °F 30.17 in ESE 2.0 mph 8.0 mph 72 % 0.00 in 0.00 W/m2
00:15 58.7 °F 49.3 °F 30.17 in SE 6.0 mph 9.0 mph 71 % 0.00 in 0.00 W/m2
00:20 58.6 °F 48.9 °F 30.17 in Calm   11.0 mph 70 % 0.00 in 0.00 W/m2
00:25 58.6 °F 49.2 °F 30.17 in Calm   9.0 mph 71 % 0.00 in 0.00 W/m2
00:30 58.6 °F 49.2 °F 30.17 in ESE 4.0 mph 9.0 mph 71 % 0.00 in 0.00 W/m2
00:35 58.6 °F 49.2 °F 30.17 in Calm   8.0 mph 71 % 0.00 in 0.00 W/m2
00:40 58.6 °F 49.6 °F 30.17 in ESE 8.0 mph 9.0 mph 72 % 0.00 in 0.00 W/m2
00:45 58.6 °F 49.2 °F 30.17 in Calm   8.0 mph 71 % 0.00 in 0.00 W/m2
00:50 58.6 °F 49.2 °F 30.17 in ESE 5.0 mph 8.0 mph 71 % 0.00 in 0.00 W/m2
00:55 58.5 °F 48.8 °F 30.17 in Calm   7.0 mph 70 % 0.00 in 0.00 W/m2
01:00 58.5 °F 49.1 °F 30.17 in East 2.0 mph 6.0 mph 71 % 0.00 in 0.00 W/m2
01:10 58.3 °F 48.6 °F 30.18 in Calm   8.0 mph 70 % 0.00 in 0.00 W/m2
01:15 58.2 °F 48.5 °F 30.17 in East 5.0 mph 7.0 mph 70 % 0.00 in 0.00 W/m2
01:20 58.1 °F 48.8 °F 30.17 in East 4.0 mph 8.0 mph 71 % 0.00 in 0.00 W/m2
01:25 57.9 °F 48.2 °F 30.17 in East 1.0 mph 10.0 mph 70 % 0.00 in 0.00 W/m2
01:30 57.7 °F 48.0 °F 30.17 in East 2.0 mph 6.0 mph 70 % 0.00 in 0.00 W/m2
01:35 57.7 °F 48.4 °F 30.17 in East 1.0 mph 9.0 mph 71 % 0.00 in 0.00 W/m2
01:40 57.6 °F 47.9 °F 30.17 in Calm   11.0 mph 70 % 0.00 in 0.00 W/m2
01:45 57.6 °F 47.9 °F 30.17 in ESE 5.0 mph 5.0 mph 70 % 0.00 in 0.00 W/m2
01:50 57.6 °F 48.3 °F 30.17 in ESE 6.0 mph 6.0 mph 71 % 0.00 in 0.00 W/m2
01:55 57.6 °F 47.9 °F 30.17 in ESE 2.0 mph 5.0 mph 70 % 0.00 in 0.00 W/m2
02:01 57.6 °F 47.9 °F 30.17 in ESE 2.0 mph 4.0 mph 70 % 0.00 in 0.00 W/m2
02:06 57.6 °F 47.9 °F 30.17 in ESE 5.0 mph 5.0 mph 70 % 0.00 in 0.00 W/m2
02:21 57.7 °F 47.6 °F 30.17 in East 11.0 mph 11.0 mph 69 % 0.00 in 0.00 W/m2
02:26 57.7 °F 47.2 °F 30.17 in ESE 1.0 mph 8.0 mph 68 % 0.00 in 0.00 W/m2
02:31 57.7 °F 48.0 °F 30.17 in East 4.0 mph 6.0 mph 70 % 0.00 in 0.00 W/m2
02:32 57.7 °F 47.6 °F 30.16 in ESE 5.0 mph 13.0 mph 69 % 0.00 in 0.00 W/m2
02:37 57.7 °F 48.0 °F 30.16 in East 7.0 mph 12.0 mph 70 % 0.00 in 0.00 W/m2
02:42 57.7 °F 46.8 °F 30.16 in ESE 4.0 mph 8.0 mph 67 % 0.00 in 0.00 W/m2
02:47 57.7 °F 47.2 °F 30.16 in ESE 6.0 mph 8.0 mph 68 % 0.00 in 0.00 W/m2
02:52 57.8 °F 47.7 °F 30.16 in ESE 2.0 mph 8.0 mph 69 % 0.00 in 0.00 W/m2
03:02 57.8 °F 47.3 °F 30.17 in ESE 5.0 mph 13.0 mph 68 % 0.00 in 0.00 W/m2
03:07 57.8 °F 47.3 °F 30.16 in East 7.0 mph 9.0 mph 68 % 0.00 in 0.00 W/m2
03:12 57.8 °F 47.3 °F 30.16 in East 6.0 mph 9.0 mph 68 % 0.00 in 0.00 W/m2
03:17 57.8 °F 46.9 °F 30.16 in ESE 1.0 mph 8.0 mph 67 % 0.00 in 0.00 W/m2
03:22 57.7 °F 47.2 °F 30.16 in ESE 5.0 mph 8.0 mph 68 % 0.00 in 0.00 W/m2
03:27 57.7 °F 46.8 °F 30.16 in East 1.0 mph 9.0 mph 67 % 0.00 in 0.00 W/m2
03:32 57.7 °F 47.6 °F 30.16 in ESE 4.0 mph 11.0 mph 69 % 0.00 in 0.00 W/m2
03:37 57.6 °F 47.1 °F 30.15 in ESE 2.0 mph 9.0 mph 68 % 0.00 in 0.00 W/m2
03:42 57.5 °F 47.0 °F 30.16 in ESE 6.0 mph 12.0 mph 68 % 0.00 in 0.00 W/m2
03:47 57.5 °F 47.0 °F 30.16 in ESE 8.0 mph 11.0 mph 68 % 0.00 in 0.00 W/m2
03:52 57.4 °F 46.5 °F 30.16 in ESE 7.0 mph 12.0 mph 67 % 0.00 in 0.00 W/m2
03:57 57.4 °F 46.5 °F 30.16 in ESE 1.0 mph 9.0 mph 67 % 0.00 in 0.00 W/m2
04:02 57.4 °F 46.2 °F 30.16 in Calm   8.0 mph 66 % 0.00 in 0.00 W/m2
04:07 57.4 °F 46.5 °F 30.16 in Calm   9.0 mph 67 % 0.00 in 0.00 W/m2
04:12 57.3 °F 46.5 °F 30.16 in ESE 6.0 mph 6.0 mph 67 % 0.00 in 0.00 W/m2
04:17 57.3 °F 46.5 °F 30.16 in ESE 6.0 mph 8.0 mph 67 % 0.00 in 0.00 W/m2
04:22 57.2 °F 46.8 °F 30.15 in East 12.0 mph 14.0 mph 68 % 0.00 in 0.00 W/m2
04:32 57.0 °F 46.2 °F 30.15 in East 5.0 mph 11.0 mph 67 % 0.00 in 0.00 W/m2
04:37 57.0 °F 46.6 °F 30.15 in ESE 7.0 mph 12.0 mph 68 % 0.00 in 0.00 W/m2
04:42 57.0 °F 46.6 °F 30.15 in ESE 9.0 mph 13.0 mph 68 % 0.00 in 0.00 W/m2
04:52 57.1 °F 46.3 °F 30.15 in ESE 6.0 mph 11.0 mph 67 % 0.00 in 0.00 W/m2
04:57 57.1 °F 46.7 °F 30.15 in East 5.0 mph 12.0 mph 68 % 0.00 in 0.00 W/m2
05:02 57.1 °F 46.7 °F 30.15 in ESE 5.0 mph 14.0 mph 68 % 0.00 in 0.00 W/m2
05:07 57.1 °F 46.3 °F 30.14 in ESE 11.0 mph 14.0 mph 67 % 0.00 in 0.00 W/m2
05:23 57.2 °F 46.4 °F 30.15 in East 8.0 mph 14.0 mph 67 % 0.00 in 0.00 W/m2
05:28 57.3 °F 46.0 °F 30.14 in ESE 12.0 mph 16.0 mph 66 % 0.00 in 0.00 W/m2
05:33 57.2 °F 45.6 °F 30.15 in East 9.0 mph 15.0 mph 65 % 0.00 in 0.00 W/m2
05:43 57.3 °F 46.0 °F 30.15 in ESE 6.0 mph 14.0 mph 66 % 0.00 in 0.00 W/m2
05:48 57.2 °F 46.0 °F 30.14 in East 6.0 mph 12.0 mph 66 % 0.00 in 0.00 W/m2
05:53 57.2 °F 45.6 °F 30.14 in ESE 14.0 mph 14.0 mph 65 % 0.00 in 0.00 W/m2
05:58 57.1 °F 45.5 °F 30.14 in East 5.0 mph 15.0 mph 65 % 0.00 in 0.00 W/m2
06:03 57.1 °F 45.5 °F 30.15 in ESE 12.0 mph 18.0 mph 65 % 0.00 in 0.00 W/m2
06:13 57.0 °F 45.8 °F 30.15 in ESE 2.0 mph 14.0 mph 66 % 0.00 in 0.00 W/m2
06:23 56.8 °F 45.6 °F 30.14 in East 9.0 mph 13.0 mph 66 % 0.00 in 0.00 W/m2
06:28 56.8 °F 45.6 °F 30.14 in ESE 5.0 mph 14.0 mph 66 % 0.00 in 0.00 W/m2
06:33 56.7 °F 45.1 °F 30.14 in East 6.0 mph 18.0 mph 65 % 0.00 in 0.00 W/m2
06:38 56.8 °F 45.2 °F 30.15 in East 8.0 mph 13.0 mph 65 % 0.00 in 0.00 W/m2
06:43 56.8 °F 45.2 °F 30.15 in ESE 1.0 mph 13.0 mph 65 % 0.00 in 0.00 W/m2
06:48 56.8 °F 45.6 °F 30.15 in ESE 6.0 mph 12.0 mph 66 % 0.00 in 0.00 W/m2
06:53 56.8 °F 45.6 °F 30.14 in ESE 9.0 mph 14.0 mph 66 % 0.00 in 0.00 W/m2
06:58 56.8 °F 45.2 °F 30.15 in East 11.0 mph 12.0 mph 65 % 0.00 in 5.00 W/m2
07:03 56.8 °F 45.6 °F 30.15 in ESE 8.0 mph 16.0 mph 66 % 0.00 in 7.00 W/m2
07:08 56.7 °F 45.5 °F 30.15 in ESE 7.0 mph 15.0 mph 66 % 0.00 in 9.00 W/m2
07:13 56.7 °F 45.1 °F 30.15 in East 9.0 mph 14.0 mph 65 % 0.00 in 12.00 W/m2
07:18 56.7 °F 45.1 °F 30.15 in ESE 8.0 mph 11.0 mph 65 % 0.00 in 18.00 W/m2
07:23 56.7 °F 45.5 °F 30.15 in ESE 1.0 mph 13.0 mph 66 % 0.00 in 26.00 W/m2
07:28 56.7 °F 45.5 °F 30.15 in ESE 8.0 mph 14.0 mph 66 % 0.00 in 44.00 W/m2
07:33 56.7 °F 45.5 °F 30.15 in ESE 1.0 mph 15.0 mph 66 % 0.00 in 37.00 W/m2
07:38 56.6 °F 45.4 °F 30.15 in East 1.0 mph 11.0 mph 66 % 0.00 in 84.00 W/m2
07:43 56.6 °F 45.4 °F 30.15 in East 2.0 mph 16.0 mph 66 % 0.00 in 107.00 W/m2
07:48 56.7 °F 45.5 °F 30.15 in East 8.0 mph 19.0 mph 66 % 0.00 in 128.00 W/m2
07:53 56.8 °F 45.2 °F 30.15 in ESE 6.0 mph 14.0 mph 65 % 0.00 in 153.00 W/m2
08:04 57.1 °F 45.9 °F 30.16 in East 6.0 mph 13.0 mph 66 % 0.00 in 142.00 W/m2
08:14 57.4 °F 46.2 °F 30.15 in ESE 4.0 mph 8.0 mph 66 % 0.00 in 257.00 W/m2
08:19 57.6 °F 46.3 °F 30.16 in ESE 2.0 mph 9.0 mph 66 % 0.00 in 243.00 W/m2
08:29 58.0 °F 47.1 °F 30.16 in Calm   11.0 mph 67 % 0.00 in 151.00 W/m2
08:34 58.2 °F 47.3 °F 30.16 in ESE 2.0 mph 8.0 mph 67 % 0.00 in 301.00 W/m2
08:39 58.4 °F 47.5 °F 30.16 in Calm   9.0 mph 67 % 0.00 in 190.00 W/m2
08:44 58.6 °F 47.3 °F 30.17 in Calm   6.0 mph 66 % 0.00 in 149.00 W/m2
08:49 58.7 °F 47.8 °F 30.16 in Calm   5.0 mph 67 % 0.00 in 137.00 W/m2
08:54 58.9 °F 48.4 °F 30.16 in Calm   6.0 mph 68 % 0.00 in 121.00 W/m2
08:59 59.1 °F 48.6 °F 30.16 in Calm   5.0 mph 68 % 0.00 in 160.00 W/m2
09:04 59.2 °F 47.9 °F 30.16 in Calm   6.0 mph 66 % 0.00 in 155.00 W/m2
09:09 59.3 °F 48.0 °F 30.17 in Calm   2.0 mph 66 % 0.00 in 206.00 W/m2
09:14 59.4 °F 48.0 °F 30.17 in Calm   4.0 mph 66 % 0.00 in 202.00 W/m2
09:19 59.5 °F 48.5 °F 30.17 in Calm   4.0 mph 67 % 0.00 in 179.00 W/m2
09:29 59.8 °F 48.8 °F 30.17 in Calm   2.0 mph 67 % 0.00 in 255.00 W/m2
09:34 60.0 °F 49.8 °F 30.17 in Calm     69 % 0.00 in 227.00 W/m2
09:39 60.2 °F 49.6 °F 30.17 in Calm     68 % 0.00 in 269.00 W/m2
09:44 60.3 °F 49.7 °F 30.17 in Calm     68 % 0.00 in 244.00 W/m2
09:49 60.5 °F 49.9 °F 30.17 in Calm     68 % 0.00 in 220.00 W/m2
09:59 60.8 °F 50.6 °F 30.17 in Calm     69 % 0.00 in 218.00 W/m2
10:09 61.3 °F 50.3 °F 30.17 in Calm     67 % 0.00 in 209.00 W/m2
10:24 61.8 °F 49.9 °F 30.17 in Calm     65 % 0.00 in 216.00 W/m2
10:34 62.1 °F 51.4 °F 30.17 in Calm     68 % 0.00 in 323.00 W/m2
10:44 62.4 °F 50.1 °F 30.17 in Calm     64 % 0.00 in 197.00 W/m2
10:49 62.6 °F 50.3 °F 30.17 in Calm     64 % 0.00 in 188.00 W/m2
10:54 62.7 °F 50.8 °F 30.16 in Calm     65 % 0.00 in 169.00 W/m2
11:09 62.9 °F 51.4 °F 30.16 in Calm     66 % 0.00 in 172.00 W/m2
11:14 63.0 °F 51.1 °F 30.16 in Calm     65 % 0.00 in 190.00 W/m2
11:19 63.0 °F 50.7 °F 30.16 in Calm     64 % 0.00 in 193.00 W/m2
11:24 63.0 °F 51.5 °F 30.15 in Calm   1.0 mph 66 % 0.00 in 220.00 W/m2
11:40 63.2 °F 52.1 °F 30.15 in Calm     67 % 0.00 in 260.00 W/m2
11:45 63.3 °F 51.3 °F 30.15 in Calm     65 % 0.00 in 264.00 W/m2
11:50 63.4 °F 49.3 °F 30.14 in Calm     60 % 0.00 in 264.00 W/m2
11:55 63.5 °F 50.3 °F 30.14 in Calm   1.0 mph 62 % 0.00 in 211.00 W/m2
12:05 63.7 °F 50.0 °F 30.14 in Calm   4.0 mph 61 % 0.00 in 165.00 W/m2
12:10 63.8 °F 50.5 °F 30.14 in Calm   2.0 mph 62 % 0.00 in 142.00 W/m2
12:20 64.0 °F 52.4 °F 30.14 in Calm     66 % 0.00 in 107.00 W/m2
12:30 63.9 °F 53.1 °F 30.15 in Calm     68 % 0.00 in 149.00 W/m2
12:35 63.7 °F 52.5 °F 30.14 in Calm     67 % 0.00 in 146.00 W/m2
12:40 63.5 °F 52.4 °F 30.13 in Calm     67 % 0.00 in 134.00 W/m2
12:50 63.3 °F 52.6 °F 30.12 in Calm   2.0 mph 68 % 0.00 in 214.00 W/m2
13:10 63.1 °F 53.2 °F 30.13 in Calm     70 % 0.00 in 193.00 W/m2
13:25 63.2 °F 52.1 °F 30.12 in Calm   1.0 mph 67 % 0.00 in 135.00 W/m2
13:30 63.3 °F 53.4 °F 30.13 in Calm     70 % 0.00 in 132.00 W/m2
13:35 63.3 °F 53.8 °F 30.12 in Calm     71 % 0.00 in 120.00 W/m2
13:40 63.2 °F 53.3 °F 30.12 in Calm     70 % 0.00 in 127.00 W/m2
13:50 63.2 °F 54.0 °F 30.11 in Calm     72 % 0.00 in 123.00 W/m2
13:55 63.1 °F 53.6 °F 30.11 in Calm   2.0 mph 71 % 0.00 in 93.00 W/m2
14:00 63.1 °F 53.2 °F 30.12 in Calm     70 % 0.00 in 91.00 W/m2
14:05 63.1 °F 53.9 °F 30.12 in Calm     72 % 0.00 in 86.00 W/m2
14:10 63.0 °F 53.5 °F 30.13 in Calm     71 % 0.00 in 95.00 W/m2
14:15 62.9 °F 54.5 °F 30.13 in Calm     74 % 0.00 in 113.00 W/m2
14:20 62.7 °F 54.7 °F 30.13 in Calm     75 % 0.00 in 105.00 W/m2
14:25 62.6 °F 54.9 °F 30.13 in Calm     76 % 0.00 in 47.00 W/m2
14:30 62.4 °F 54.8 °F 30.13 in Calm   1.0 mph 76 % 0.00 in 42.00 W/m2
14:35 62.2 °F 53.8 °F 30.11 in ESE 4.0 mph 4.0 mph 74 % 0.00 in 54.00 W/m2
14:40 62.0 °F 54.4 °F 30.11 in Calm   5.0 mph 76 % 0.00 in 49.00 W/m2
14:42 61.9 °F 54.3 °F 30.11 in Calm   4.0 mph 76 % 0.00 in 49.00 W/m2
14:47 61.8 °F 54.2 °F 30.11 in Calm   1.0 mph 76 % 0.00 in 54.00 W/m2
14:57 61.6 °F 54.3 °F 30.11 in ESE 4.0 mph 4.0 mph 77 % 0.00 in 69.00 W/m2
15:02 61.5 °F 53.9 °F 30.10 in Calm   6.0 mph 76 % 0.00 in 69.00 W/m2
15:12 61.4 °F 52.3 °F 30.10 in ESE 5.0 mph 6.0 mph 72 % 0.00 in 30.00 W/m2
15:18 61.4 °F 53.8 °F 30.09 in East 5.0 mph 7.0 mph 76 % 0.00 in 49.00 W/m2
15:23 61.4 °F 53.0 °F 30.09 in East 1.0 mph 9.0 mph 74 % 0.00 in 63.00 W/m2
15:33 61.2 °F 52.1 °F 30.10 in ESE 5.0 mph 8.0 mph 72 % 0.00 in 62.00 W/m2
15:38 61.2 °F 52.5 °F 30.10 in East 8.0 mph 8.0 mph 73 % 0.00 in 60.00 W/m2
15:43 61.1 °F 52.8 °F 30.11 in ESE 5.0 mph 7.0 mph 74 % 0.00 in 46.00 W/m2
15:44 61.1 °F 52.8 °F 30.11 in Calm   7.0 mph 74 % 0.00 in 46.00 W/m2
15:54 60.9 °F 52.6 °F 30.11 in Calm     74 % 0.00 in 44.00 W/m2
15:59 60.7 °F 53.5 °F 30.10 in Calm     77 % 0.00 in 53.00 W/m2
16:04 60.6 °F 53.4 °F 30.10 in Calm     77 % 0.00 in 39.00 W/m2
16:09 60.4 °F 53.2 °F 30.10 in Calm     77 % 0.00 in 21.00 W/m2
16:19 60.2 °F 52.6 °F 30.10 in Calm     76 % 0.00 in 16.00 W/m2
16:24 60.1 °F 53.2 °F 30.10 in Calm     78 % 0.00 in 12.00 W/m2
16:29 60.0 °F 53.1 °F 30.11 in Calm     78 % 0.00 in 0.00 W/m2
16:39 59.6 °F 53.4 °F 30.10 in Calm     80 % 0.00 in 0.00 W/m2
16:44 59.4 °F 53.2 °F 30.09 in Calm     80 % 0.00 in 0.00 W/m2
16:49 59.3 °F 53.1 °F 30.10 in Calm     80 % 0.00 in 0.00 W/m2
16:54 59.1 °F 52.9 °F 30.09 in East 2.0 mph 5.0 mph 80 % 0.00 in 0.00 W/m2
16:59 58.9 °F 52.4 °F 30.09 in East 3.0 mph 6.0 mph 79 % 0.00 in 0.00 W/m2
17:04 58.8 °F 52.7 °F 30.08 in East 2.0 mph 6.0 mph 80 % 0.00 in 0.00 W/m2
17:09 58.7 °F 52.2 °F 30.08 in East 2.0 mph 8.0 mph 79 % 0.00 in 0.00 W/m2
17:14 58.7 °F 51.9 °F 30.09 in Calm   8.0 mph 78 % 0.00 in 0.00 W/m2
17:29 58.7 °F 51.2 °F 30.09 in ESE 4.0 mph 8.0 mph 76 % 0.00 in 0.00 W/m2
17:39 58.9 °F 51.4 °F 30.09 in ESE 6.0 mph 9.0 mph 76 % 0.00 in 0.00 W/m2
17:44 58.9 °F 51.4 °F 30.09 in ESE 4.0 mph 13.0 mph 76 % 0.00 in 0.00 W/m2
17:49 58.9 °F 51.4 °F 30.09 in ESE 4.0 mph 12.0 mph 76 % 0.00 in 0.00 W/m2
17:54 58.9 °F 51.0 °F 30.09 in ESE 1.0 mph 9.0 mph 75 % 0.00 in 0.00 W/m2
17:59 58.9 °F 51.0 °F 30.09 in Calm   8.0 mph 75 % 0.00 in 0.00 W/m2
18:04 59.0 °F 50.7 °F 30.09 in Calm   9.0 mph 74 % 0.00 in 0.00 W/m2
18:14 59.0 °F 49.6 °F 30.10 in Calm   6.0 mph 71 % 0.00 in 0.00 W/m2
18:19 59.1 °F 49.7 °F 30.10 in ESE 1.0 mph 7.0 mph 71 % 0.00 in 0.00 W/m2
18:24 59.2 °F 50.2 °F 30.10 in Calm   8.0 mph 72 % 0.00 in 0.00 W/m2
18:34 59.3 °F 50.7 °F 30.11 in Calm   1.0 mph 73 % 0.00 in 0.00 W/m2
18:39 59.3 °F 51.0 °F 30.11 in Calm     74 % 0.00 in 0.00 W/m2
18:45 59.2 °F 50.6 °F 30.10 in Calm     73 % 0.00 in 0.00 W/m2
18:50 59.1 °F 50.8 °F 30.10 in Calm     74 % 0.00 in 0.00 W/m2
18:55 59.1 °F 50.8 °F 30.10 in Calm     74 % 0.00 in 0.00 W/m2
19:05 58.9 °F 50.6 °F 30.11 in Calm     74 % 0.00 in 0.00 W/m2
19:10 58.8 °F 50.5 °F 30.10 in Calm   1.0 mph 74 % 0.00 in 0.00 W/m2
19:15 58.7 °F 50.5 °F 30.11 in Calm     74 % 0.00 in 0.00 W/m2
19:19 58.6 °F 50.7 °F 30.10 in Calm     75 % 0.00 in 0.00 W/m2
19:20 58.6 °F 51.1 °F 30.10 in Calm     76 % 0.00 in 0.00 W/m2
19:25 58.5 °F 51.0 °F 30.11 in Calm   2.0 mph 76 % 0.00 in 0.00 W/m2
19:31 58.4 °F 50.9 °F 30.11 in Calm     76 % 0.00 in 0.00 W/m2
19:36 58.2 °F 50.7 °F 30.10 in Calm     76 % 0.00 in 0.00 W/m2
19:46 58.1 °F 50.9 °F 30.10 in Calm     77 % 0.00 in 0.00 W/m2
19:51 58.0 °F 50.1 °F 30.10 in Calm     75 % 0.00 in 0.00 W/m2
19:53 58.0 °F 50.5 °F 30.11 in Calm   1.0 mph 76 % 0.00 in 0.00 W/m2
20:03 57.9 °F 50.4 °F 30.10 in Calm   4.0 mph 76 % 0.00 in 0.00 W/m2
20:13 57.8 °F 49.6 °F 30.11 in Calm   5.0 mph 74 % 0.00 in 0.00 W/m2
20:18 57.7 °F 49.5 °F 30.11 in Calm   1.0 mph 74 % 0.00 in 0.00 W/m2
20:23 57.7 °F 49.8 °F 30.10 in Calm   1.0 mph 75 % 0.00 in 0.00 W/m2
20:28 57.7 °F 50.2 °F 30.11 in Calm     76 % 0.00 in 0.00 W/m2
20:33 57.7 °F 50.2 °F 30.11 in Calm   1.0 mph 76 % 0.00 in 0.00 W/m2
20:44 57.5 °F 49.7 °F 30.11 in Calm     75 % 0.00 in 0.00 W/m2
20:49 57.5 °F 49.7 °F 30.11 in Calm     75 % 0.00 in 0.00 W/m2
20:54 57.3 °F 49.5 °F 30.11 in Calm     75 % 0.00 in 0.00 W/m2
20:58 57.3 °F 49.8 °F 30.11 in Calm     76 % 0.00 in 0.00 W/m2
21:03 57.2 °F 49.4 °F 30.11 in Calm   2.0 mph 75 % 0.00 in 0.00 W/m2
21:08 57.1 °F 49.6 °F 30.11 in Calm     76 % 0.00 in 0.00 W/m2
21:13 57.1 °F 49.3 °F 30.11 in Calm   5.0 mph 75 % 0.00 in 0.00 W/m2
21:18 57.1 °F 49.6 °F 30.12 in Calm   5.0 mph 76 % 0.00 in 0.00 W/m2
21:23 57.0 °F 49.2 °F 30.11 in Calm   2.0 mph 75 % 0.00 in 0.00 W/m2
21:28 57.0 °F 49.5 °F 30.11 in Calm   2.0 mph 76 % 0.00 in 0.00 W/m2
21:33 56.9 °F 49.1 °F 30.12 in Calm   4.0 mph 75 % 0.00 in 0.00 W/m2
21:38 56.9 °F 49.4 °F 30.12 in Calm   4.0 mph 76 % 0.00 in 0.00 W/m2
21:43 56.9 °F 49.1 °F 30.12 in Calm   4.0 mph 75 % 0.00 in 0.00 W/m2
21:48 56.9 °F 49.8 °F 30.12 in Calm   5.0 mph 77 % 0.00 in 0.00 W/m2
21:53 56.8 °F 49.3 °F 30.12 in Calm   1.0 mph 76 % 0.00 in 0.00 W/m2
21:58 56.7 °F 49.2 °F 30.12 in Calm   5.0 mph 76 % 0.00 in 0.00 W/m2
22:03 56.6 °F 49.1 °F 30.12 in ESE 1.0 mph 5.0 mph 76 % 0.00 in 0.00 W/m2
22:08 56.6 °F 48.8 °F 30.11 in ESE 5.0 mph 5.0 mph 75 % 0.00 in 0.00 W/m2
22:13 56.5 °F 48.7 °F 30.11 in ESE 1.0 mph 5.0 mph 75 % 0.00 in 0.00 W/m2
22:28 56.3 °F 48.5 °F 30.12 in Calm     75 % 0.00 in 0.00 W/m2
22:33 56.2 °F 48.4 °F 30.13 in Calm     75 % 0.00 in 0.00 W/m2
22:38 56.1 °F 48.3 °F 30.12 in Calm     75 % 0.00 in 0.00 W/m2
22:43 55.9 °F 48.1 °F 30.12 in Calm     75 % 0.00 in 0.00 W/m2
22:53 55.6 °F 48.2 °F 30.12 in Calm     76 % 0.00 in 0.00 W/m2
23:08 55.1 °F 47.7 °F 30.12 in Calm     76 % 0.00 in 0.00 W/m2
23:13 54.9 °F 47.5 °F 30.12 in Calm     76 % 0.00 in 0.00 W/m2
23:18 54.7 °F 47.3 °F 30.12 in Calm     76 % 0.00 in 0.00 W/m2
23:34 54.2 °F 47.5 °F 30.13 in Calm     78 % 0.00 in 0.00 W/m2
23:44 54.0 °F 47.6 °F 30.12 in Calm     79 % 0.00 in 0.00 W/m2
23:49 53.9 °F 47.9 °F 30.12 in Calm     80 % 0.00 in 0.00 W/m2
23:59 53.8 °F 47.8 °F 30.12 in Calm     80 % 0.00 in 0.00 W/m2
Juneau County Weather
Compliments of Weather Underground - 4.25 mb
 WU-history PHP script courtesy of   Juneau County Weather.
powered by Cumulus v1.9.3 (1059)
Ambient Weather VWS v14.00
Top Contact Website Map Copyright © 2007 - 2018 Foresthillweather.com Never base important decisions on this or any weather information obtained from the Internet